• In Netherlands
  • List of Countries
  • For 7 days
  • Water Temperature
  • Satellite Maps
  • Weather Map
  • Weather Widgets
  • user-avatar
    Login

    Hourly Weather Rawson

    Today, 28 March, Tuesday

    Time Temperature Precipitation Wind Pressure Humidity
    00:00 +21°C° 0 mm 5 mps 765 mmHg 78%
    01:00 +21°C° 0 mm 4 mps 765 mmHg 79%
    02:00 +21°C° 0 mm 4 mps 765 mmHg 82%
    03:00 +20°C° 0 mm 4 mps 765 mmHg 83%
    04:00 +20°C° 0 mm 4 mps 765 mmHg 85%
    05:00 +20°C° 0 mm 5 mps 765 mmHg 87%
    06:00 +20°C° 0.2 mm 5 mps 765 mmHg 87%
    07:00 +20°C° 0.2 mm 6 mps 765 mmHg 88%
    08:00 +21°C° 0.2 mm 6 mps 765 mmHg 88%
    09:00 +21°C° 0.4 mm 7 mps 764 mmHg 82%
    10:00 +22°C° 0.4 mm 7 mps 764 mmHg 76%
    11:00 +23°C° 0.4 mm 8 mps 764 mmHg 70%
    12:00 +23°C° 0.2 mm 8 mps 764 mmHg 70%
    13:00 +23°C° 0.2 mm 8 mps 764 mmHg 71%
    14:00 +24°C° 0.2 mm 8 mps 763 mmHg 72%
    15:00 +24°C° 0.1 mm 7 mps 763 mmHg 71%
    16:00 +24°C° 0.1 mm 7 mps 763 mmHg 71%
    17:00 +24°C° 0.1 mm 7 mps 762 mmHg 71%
    18:00 +23°C° 0.1 mm 6 mps 762 mmHg 75%
    19:00 +23°C° 0.1 mm 6 mps 762 mmHg 79%
    20:00 +22°C° 0.1 mm 6 mps 763 mmHg 83%
    21:00 +22°C° 0.6 mm 7 mps 763 mmHg 83%
    22:00 +22°C° 0.6 mm 7 mps 763 mmHg 84%
    23:00 +21°C° 0.6 mm 8 mps 763 mmHg 84%

    Tomorrow, 29 March, Wednesday

    Time Temperature Precipitation Wind Pressure Humidity
    00:00 +21°C° 1.5 mm 8 mps 762 mmHg 86%
    01:00 +21°C° 1.5 mm 7 mps 762 mmHg 88%
    02:00 +21°C° 1.5 mm 7 mps 761 mmHg 89%
    03:00 +21°C° 0.7 mm 7 mps 761 mmHg 90%
    04:00 +21°C° 0.7 mm 7 mps 761 mmHg 91%
    05:00 +21°C° 0.7 mm 7 mps 761 mmHg 91%
    06:00 +21°C° 1 mm 7 mps 761 mmHg 91%
    07:00 +21°C° 1 mm 7 mps 761 mmHg 91%
    08:00 +21°C° 1 mm 7 mps 761 mmHg 91%
    09:00 +22°C° 0.6 mm 7 mps 761 mmHg 85%
    10:00 +23°C° 0.6 mm 7 mps 760 mmHg 79%
    11:00 +24°C° 0.6 mm 8 mps 760 mmHg 73%
    12:00 +24°C° 0 mm 8 mps 760 mmHg 72%
    13:00 +24°C° 0 mm 7 mps 760 mmHg 70%
    14:00 +26°C° 0 mm 7 mps 759 mmHg 68%
    15:00 +24°C° 0.1 mm 7 mps 759 mmHg 71%
    16:00 +23°C° 0.1 mm 6 mps 759 mmHg 73%
    17:00 +23°C° 0.1 mm 6 mps 759 mmHg 75%
    18:00 +22°C° 2.5 mm 5 mps 759 mmHg 80%
    19:00 +21°C° 2.5 mm 4 mps 759 mmHg 85%
    20:00 +20°C° 2.5 mm 3 mps 759 mmHg 90%
    21:00 +20°C° 5.9 mm 4 mps 759 mmHg 91%
    22:00 +20°C° 5.9 mm 6 mps 758 mmHg 91%
    23:00 +20°C° 5.9 mm 7 mps 758 mmHg 91%

    Day after tomorrow, 30 March, Thursday

    Time Temperature Precipitation Wind Pressure Humidity
    00:00 +20°C° 3.1 mm 8 mps 758 mmHg 90%
    01:00 +19°C° 3.1 mm 9 mps 757 mmHg 88%
    02:00 +19°C° 3.1 mm 9 mps 756 mmHg 86%
    03:00 +19°C° 0.5 mm 9 mps 756 mmHg 87%
    04:00 +20°C° 0.5 mm 8 mps 756 mmHg 89%
    05:00 +20°C° 0.5 mm 7 mps 755 mmHg 90%
    06:00 +20°C° 0.8 mm 7 mps 755 mmHg 89%
    07:00 +20°C° 0.8 mm 6 mps 755 mmHg 88%
    08:00 +20°C° 0.8 mm 6 mps 755 mmHg 87%
    09:00 +22°C° 0.4 mm 6 mps 755 mmHg 81%
    10:00 +23°C° 0.4 mm 5 mps 755 mmHg 75%
    11:00 +25°C° 0.4 mm 5 mps 755 mmHg 69%
    12:00 +25°C° 0.1 mm 5 mps 755 mmHg 65%
    13:00 +26°C° 0.1 mm 5 mps 755 mmHg 62%
    14:00 +27°C° 0.1 mm 4 mps 755 mmHg 58%
    15:00 +26°C° 0.1 mm 4 mps 755 mmHg 56%
    16:00 +26°C° 0.1 mm 5 mps 755 mmHg 55%
    17:00 +25°C° 0.1 mm 5 mps 755 mmHg 53%
    18:00 +23°C° 0 mm 4 mps 756 mmHg 55%
    19:00 +22°C° 0 mm 4 mps 757 mmHg 58%
    20:00 +21°C° 0 mm 4 mps 758 mmHg 60%
    21:00 +19°C° 0 mm 5 mps 759 mmHg 64%
    22:00 +17°C° 0 mm 6 mps 759 mmHg 67%
    23:00 +16°C° 0 mm 7 mps 760 mmHg 70%

    31 March, Friday

    Time Temperature Precipitation Wind Pressure Humidity
    00:00 +15°C° 0 mm 7 mps 760 mmHg 70%
    01:00 +15°C° 0 mm 7 mps 761 mmHg 71%
    02:00 +13°C° 0 mm 8 mps 761 mmHg 71%
    03:00 +14°C° 0 mm 7 mps 761 mmHg 72%
    04:00 +14°C° 0 mm 7 mps 762 mmHg 72%
    05:00 +13°C° 0 mm 6 mps 762 mmHg 73%
    06:00 +14°C° 0 mm 6 mps 763 mmHg 72%
    07:00 +14°C° 0 mm 6 mps 763 mmHg 71%
    08:00 +14°C° 0 mm 5 mps 763 mmHg 71%
    09:00 +17°C° 0 mm 4 mps 764 mmHg 65%
    10:00 +18°C° 0 mm 3 mps 764 mmHg 60%
    11:00 +20°C° 0 mm 2 mps 764 mmHg 55%
    12:00 +21°C° 0 mm 2 mps 764 mmHg 52%
    13:00 +23°C° 0 mm 2 mps 764 mmHg 49%
    14:00 +24°C° 0 mm 2 mps 764 mmHg 45%
    15:00 +24°C° 0.1 mm 3 mps 764 mmHg 48%
    16:00 +22°C° 0.1 mm 3 mps 764 mmHg 51%
    17:00 +22°C° 0.1 mm 4 mps 764 mmHg 53%
    18:00 +21°C° 0.2 mm 4 mps 764 mmHg 61%
    19:00 +19°C° 0.2 mm 4 mps 764 mmHg 69%
    20:00 +17°C° 0.2 mm 5 mps 765 mmHg 77%
    21:00 +17°C° 0 mm 5 mps 765 mmHg 80%
    22:00 +17°C° 0 mm 5 mps 765 mmHg 83%
    23:00 +17°C° 0 mm 5 mps 765 mmHg 86%

    1 April, Saturday

    Time Temperature Precipitation Wind Pressure Humidity
    00:00 +17°C° 0.7 mm 5 mps 765 mmHg 87%
    01:00 +17°C° 0.7 mm 5 mps 764 mmHg 88%
    02:00 +17°C° 0.7 mm 5 mps 764 mmHg 90%
    03:00 +16°C° 0.7 mm 6 mps 764 mmHg 90%
    04:00 +16°C° 0.7 mm 6 mps 764 mmHg 91%
    05:00 +16°C° 0.7 mm 7 mps 763 mmHg 91%
    06:00 +16°C° 0 mm 7 mps 763 mmHg 91%
    07:00 +17°C° 0 mm 6 mps 763 mmHg 90%
    08:00 +17°C° 0 mm 6 mps 763 mmHg 90%
    09:00 +17°C° 0.1 mm 6 mps 763 mmHg 90%
    10:00 +17°C° 0.1 mm 6 mps 763 mmHg 89%
    11:00 +17°C° 0.1 mm 6 mps 763 mmHg 88%
    12:00 +17°C° 0.3 mm 6 mps 763 mmHg 88%
    13:00 +17°C° 0.3 mm 7 mps 763 mmHg 88%
    14:00 +18°C° 0.3 mm 7 mps 762 mmHg 87%
    15:00 +17°C° 0.4 mm 7 mps 762 mmHg 88%
    16:00 +17°C° 0.4 mm 7 mps 762 mmHg 89%
    17:00 +17°C° 0.4 mm 7 mps 762 mmHg 90%
    18:00 +17°C° 0.9 mm 6 mps 762 mmHg 91%
    19:00 +17°C° 0.9 mm 6 mps 762 mmHg 93%
    20:00 +17°C° 0.9 mm 5 mps 762 mmHg 94%
    21:00 +17°C° 1.3 mm 5 mps 762 mmHg 94%
    22:00 +19°C° 1.3 mm 4 mps 762 mmHg 95%
    23:00 +19°C° 1.3 mm 4 mps 761 mmHg 95%

    2 April, Sunday

    Time Temperature Precipitation Wind Pressure Humidity
    00:00 +19°C° 0.6 mm 4 mps 761 mmHg 95%
    01:00 +19°C° 0.6 mm 3 mps 761 mmHg 96%
    02:00 +19°C° 0.6 mm 3 mps 760 mmHg 96%
    03:00 +19°C° 0.6 mm 3 mps 760 mmHg 96%
    04:00 +19°C° 0.6 mm 3 mps 760 mmHg 96%
    05:00 +19°C° 0.6 mm 3 mps 759 mmHg 97%
    06:00 +19°C° 1.3 mm 4 mps 759 mmHg 97%
    07:00 +19°C° 1.3 mm 4 mps 759 mmHg 96%
    08:00 +19°C° 1.3 mm 5 mps 759 mmHg 96%
    09:00 +19°C° 0.6 mm 5 mps 759 mmHg 96%
    10:00 +19°C° 0.6 mm 5 mps 759 mmHg 96%
    11:00 +19°C° 0.6 mm 5 mps 758 mmHg 95%
    12:00 +19°C° 0.4 mm 5 mps 758 mmHg 95%
    13:00 +19°C° 0.4 mm 5 mps 757 mmHg 94%
    14:00 +19°C° 0.4 mm 5 mps 756 mmHg 94%
    15:00 +19°C° 1.1 mm 5 mps 756 mmHg 93%
    16:00 +19°C° 1.1 mm 5 mps 756 mmHg 92%
    17:00 +19°C° 1.1 mm 5 mps 755 mmHg 92%
    18:00 +19°C° 1.4 mm 5 mps 755 mmHg 92%
    19:00 +19°C° 1.4 mm 5 mps 755 mmHg 93%
    20:00 +19°C° 1.4 mm 5 mps 755 mmHg 93%
    21:00 +19°C° 0.9 mm 6 mps 754 mmHg 93%
    22:00 +18°C° 0.9 mm 7 mps 753 mmHg 93%
    23:00 +17°C° 0.9 mm 8 mps 753 mmHg 92%
    Show more